CW4859 Weather Reports


time (UTC)temp
F
wind
direction
speed
knots
gust
knots
rain 1hr
in
rain 24hr
in
rain mn
in
humidity
%
barometer
mb
20260508023003 55 149 0.9 1.7 0.00 0.18 0.00 74 1007.2
20260508022503 55 149 0.0 0.0 0.00 0.18 0.00 74 1007.2
20260508022003 55 149 0.0 0.0 0.00 0.20 0.00 73 1007.2
20260508021506 56 149 0.0 0.0 0.00 0.20 0.00 72 1007.1
20260508021003 56 149 0.0 0.0 0.00 0.21 0.00 72 1007.1
20260508020506 56 149 0.0 0.0 0.00 0.21 0.00 71 1007.1
20260508020003 56 149 0.0 0.0 0.00 0.21 0.00 71 1006.9
20260508015503 56 149 0.0 0.0 0.00 0.21 0.00 71 1006.9
20260508015003 57 149 0.0 0.0 0.00 0.21 0.00 70 1006.9
20260508014503 57 149 0.0 0.9 0.00 0.21 0.00 69 1006.7
20260508014003 57 149 0.9 1.7 0.00 0.21 0.00 68 1006.7
20260508013506 57 149 0.9 0.9 0.00 0.21 0.00 67 1006.7
20260508013003 57 123 0.0 1.7 0.00 0.21 0.00 66 1006.7
20260508012503 58 123 0.0 3.5 0.00 0.21 0.00 65 1006.7
20260508012006 58 111 2.6 2.6 0.00 0.21 0.00 64 1006.7
20260508011503 58 111 0.9 2.6 0.00 0.21 0.00 63 1006.6
20260508011003 58 78 0.9 2.6 0.00 0.21 0.00 61 1006.6
20260508010503 59 78 1.7 1.7 0.00 0.21 0.00 56 1006.6
20260508010003 59 78 0.9 1.7 0.00 0.21 0.00 54 1006.3
20260508005506 60 107 0.9 1.7 0.00 0.21 0.00 52 1006.3
20260508005003 60 107 0.9 3.5 0.00 0.21 0.00 52 1006.3
20260508004503 60 33 0.9 0.9 0.00 0.21 0.00 48 1006.1
20260508004003 61 33 0.0 0.9 0.00 0.21 0.00 47 1006.1
20260508003503 61 33 0.0 0.0 0.00 0.21 0.00 45 1006.1
20260508003003 62 33 0.0 0.0 0.00 0.21 0.00 44 1005.8
20260508002506 62 33 0.0 0.0 0.00 0.21 0.00 45 1005.8
20260508002003 62 33 0.0 0.9 0.00 0.21 0.00 45 1005.8
20260508001503 62 33 0.9 1.7 0.00 0.21 0.00 44 1005.7
20260508001003 62 33 0.0 1.7 0.00 0.21 0.00 40 1005.7
20260508000503 63 33 1.7 2.6 0.00 0.21 0.00 40 1005.7
20260508000006 63 13 0.0 0.0 0.00 0.21 0.00 39 1005.7
20260507235503 63 15 0.0 0.0 0.00 0.21 0.00 41 1005.7
20260507235006 63 341 0.0 2.6 0.00 0.21 0.00 40 1005.7
20260507234503 63 5 0.9 3.5 0.00 0.21 0.00 39 1005.6
20260507234003 63 323 1.7 2.6 0.00 0.21 0.00 38 1005.6
20260507233503 63 323 0.9 1.7 0.00 0.21 0.00 38 1005.6
20260507233003 63 323 0.9 2.6 0.00 0.21 0.00 39 1005.3
20260507232503 64 323 0.9 1.7 0.00 0.21 0.00 38 1005.3
20260507232002 64 323 0.0 1.7 0.00 0.21 0.00 39 1005.3
20260507231502 64 346 0.9 4.3 0.00 0.21 0.00 38 1005.4
20260507231003 64 11 2.6 4.3 0.00 0.21 0.00 37 1005.4
20260507230503 64 39 2.6 4.3 0.00 0.21 0.00 37 1005.4
20260507230003 64 285 1.7 3.5 0.00 0.21 0.00 36 1005.3
20260507225503 64 303 2.6 3.5 0.00 0.21 0.00 37 1005.3
20260507225002 64 325 0.9 5.2 0.00 0.21 0.00 37 1005.3
20260507224503 64 336 1.7 6.1 0.00 0.21 0.00 36 1005.6
20260507224003 64 342 0.9 5.2 0.00 0.21 0.00 36 1005.6
20260507223503 64 293 2.6 6.1 0.00 0.21 0.00 37 1005.6
20260507223003 64 292 2.6 6.1 0.00 0.21 0.00 36 1005.6
20260507222503 64 28 3.5 5.2 0.00 0.21 0.00 38 1005.6
20260507222003 64 277 0.9 4.3 0.00 0.21 0.00 37 1005.6
20260507221502 64 274 2.6 5.2 0.00 0.21 0.00 36 1005.6
20260507221002 65 19 2.6 7.0 0.00 0.21 0.00 36 1005.6
20260507220503 65 308 5.2 7.8 0.00 0.21 0.00 35 1005.6
20260507220003 65 347 3.5 6.1 0.00 0.21 0.00 36 1005.6
20260507215505 65 342 5.2 7.0 0.00 0.21 0.00 35 1005.6
20260507215002 65 0 1.7 7.0 0.00 0.21 0.00 35 1005.6
20260507214503 65 315 4.3 7.0 0.00 0.21 0.00 35 1005.6
20260507214002 66 289 2.6 9.6 0.00 0.21 0.00 34 1005.6
20260507213502 66 313 4.3 10.4 0.00 0.21 0.00 35 1005.6
20260507213007 66 297 6.1 7.0 0.00 0.21 0.00 34 1005.4
20260507212502 66 263 3.5 7.8 0.00 0.21 0.00 35 1005.4
20260507212002 66 227 1.7 7.8 0.00 0.21 0.00 34 1005.4
20260507211502 66 243 3.5 8.7 0.00 0.21 0.00 33 1005.2
20260507211005 65 341 6.1 10.4 0.00 0.21 0.00 35 1005.2
20260507210502 65 0 3.5 9.6 0.00 0.21 0.00 36 1005.2
20260507210002 65 234 4.3 9.6 0.00 0.21 0.00 36 1005.3
20260507205502 65 268 0.9 4.3 0.00 0.21 0.00 35 1005.3
20260507205002 65 258 2.6 4.3 0.00 0.21 0.00 35 1005.3
20260507204502 65 348 4.3 8.7 0.00 0.21 0.00 34 1005.4
20260507204002 66 271 6.1 11.3 0.00 0.21 0.00 35 1005.4
20260507203505 65 238 1.7 8.7 0.00 0.21 0.00 35 1005.4
20260507203002 65 309 7.0 7.0 0.00 0.21 0.00 36 1005.5
20260507202502 66 5 3.5 7.0 0.00 0.21 0.00 36 1005.5
20260507202002 66 17 6.1 7.8 0.00 0.21 0.00 38 1005.5
20260507201502 66 5 4.3 9.6 0.00 0.21 0.00 35 1005.6
20260507201005 66 17 1.7 8.7 0.00 0.21 0.00 34 1005.6
20260507200505 66 322 6.1 11.3 0.00 0.21 0.00 37 1005.6
20260507200002 66 202 5.2 10.4 0.00 0.21 0.00 36 1005.5
20260507195502 66 230 2.6 9.6 0.00 0.21 0.00 36 1005.5
20260507195002 66 201 4.3 7.0 0.00 0.21 0.00 35 1005.5
20260507194502 66 263 4.3 7.0 0.00 0.21 0.00 37 1005.8
20260507194002 66 309 3.5 13.0 0.00 0.21 0.00 38 1005.8
20260507193505 65 117 0.9 5.2 0.00 0.21 0.00 37 1005.8
20260507193002 65 48 2.6 12.2 0.00 0.21 0.00 38 1006.1
20260507192502 65 317 3.5 13.9 0.00 0.21 0.00 39 1006.1
20260507192005 65 321 6.1 7.8 0.00 0.21 0.00 38 1006.1
20260507191502 65 208 1.7 6.1 0.00 0.21 0.00 37 1006.2
20260507191002 65 261 7.0 9.6 0.00 0.21 0.00 39 1006.2
20260507190505 65 337 5.2 9.6 0.00 0.21 0.00 38 1006.2
20260507190003 65 291 5.2 7.8 0.00 0.21 0.00 40 1006.2
20260507185502 65 270 2.6 7.0 0.00 0.21 0.00 42 1006.2
20260507185002 65 224 0.9 8.7 0.00 0.21 0.00 36 1006.2
20260507184505 65 293 6.1 9.6 0.00 0.21 0.00 40 1006.7
20260507184002 65 338 3.5 5.2 0.00 0.21 0.00 42 1006.7
20260507183502 65 268 0.0 7.8 0.00 0.21 0.00 38 1006.7
20260507183002 65 309 7.8 8.7 0.00 0.21 0.00 43 1006.8
20260507182502 64 295 1.7 8.7 0.00 0.21 0.00 39 1006.8
20260507182002 64 348 6.1 10.4 0.00 0.21 0.00 40 1006.8
20260507181502 64 334 3.5 6.1 0.00 0.21 0.00 38 1006.7
20260507181002 65 96 4.3 10.4 0.00 0.21 0.00 37 1006.7
20260507180502 64 300 5.2 10.4 0.00 0.21 0.00 40 1006.7
20260507180002 64 355 3.5 13.0 0.00 0.21 0.00 39 1007.1
20260507175505 65 297 1.7 11.3 0.00 0.21 0.00 37 1007.1
20260507175002 65 15 5.2 11.3 0.00 0.21 0.00 41 1007.1
20260507174502 64 336 2.6 8.7 0.00 0.21 0.00 39 1007.2
20260507174002 64 351 8.7 12.2 0.00 0.21 0.00 39 1007.2
20260507173502 65 250 5.2 13.9 0.00 0.21 0.00 39 1007.2
20260507173005 65 293 3.5 7.0 0.00 0.21 0.00 39 1007.7
20260507172502 65 322 6.1 14.8 0.00 0.21 0.00 41 1007.7
20260507172002 64 318 2.6 9.6 0.00 0.21 0.00 43 1007.7
20260507171502 64 334 7.0 9.6 0.00 0.21 0.00 41 1007.7
20260507171005 64 251 3.5 11.3 0.00 0.21 0.00 42 1007.7
20260507170502 64 262 7.8 7.8 0.00 0.21 0.00 45 1007.7
20260507170002 64 340 7.0 8.7 0.00 0.21 0.00 46 1007.9
20260507165502 63 0 6.1 10.4 0.00 0.21 0.00 46 1007.9
20260507165002 64 306 7.0 12.2 0.00 0.23 0.00 42 1007.9
20260507164502 63 5 8.7 10.4 0.00 0.23 0.00 48 1008.0
20260507164002 63 228 1.7 9.6 0.00 0.23 0.00 44 1008.0
20260507163502 63 324 11.3 12.2 0.00 0.23 0.00 46 1008.0
20260507163002 63 306 6.1 9.6 0.00 0.23 0.00 47 1008.0
20260507162502 63 242 5.2 10.4 0.00 0.23 0.00 46 1008.0
20260507162005 62 5 4.3 8.7 0.00 0.23 0.00 48 1008.0
20260507161502 62 329 8.7 9.6 0.00 0.23 0.00 47 1008.5
20260507161002 62 296 6.1 10.4 0.00 0.23 0.00 49 1008.5
20260507160502 62 321 5.2 8.7 0.00 0.23 0.00 50 1008.5
20260507160005 62 5 4.3 11.3 0.00 0.23 0.00 48 1008.7
20260507155502 62 313 3.5 8.7 0.00 0.23 0.00 47 1008.7
20260507155005 62 25 3.5 11.3 0.00 0.24 0.00 50 1008.7
20260507154504 61 67 6.1 7.0 0.00 0.24 0.00 54 1008.9
20260507154002 61 296 4.3 11.3 0.00 0.24 0.00 53 1008.9
20260507153502 61 0 2.6 10.4 0.00 0.24 0.00 51 1008.9
20260507153002 61 343 5.2 10.4 0.00 0.24 0.00 50 1009.2
20260507152502 60 299 6.1 7.0 0.00 0.24 0.00 58 1009.2
20260507152002 60 313 3.5 8.7 0.00 0.24 0.00 60 1009.2
20260507151501 59 321 3.5 9.6 0.00 0.24 0.00 56 1009.2
20260507151002 58 325 2.6 10.4 0.00 0.24 0.00 56 1009.2
20260507150501 58 38 1.7 7.8 0.00 0.24 0.00 60 1009.2
20260507150005 58 312 6.1 12.2 0.00 0.24 0.00 60 1009.3
20260507145501 58 317 3.5 7.0 0.00 0.24 0.00 62 1009.3
20260507145002 57 304 3.5 8.7 0.00 0.24 0.00 66 1009.3
20260507144501 57 5 0.9 6.1 0.00 0.24 0.00 66 1009.5
20260507144004 57 295 1.7 9.6 0.00 0.24 0.00 64 1009.5
20260507143501 56 326 3.5 7.0 0.00 0.24 0.00 68 1009.5
20260507143001 56 298 6.1 11.3 0.00 0.24 0.00 69 1009.4
20260507142504 56 316 7.8 7.8 0.00 0.24 0.00 71 1009.4
20260507142002 56 292 6.1 6.1 0.00 0.24 0.00 71 1009.4
20260507141502 56 0 1.7 7.8 0.00 0.24 0.00 74 1009.4
20260507141001 55 345 2.6 7.8 0.00 0.24 0.00 75 1009.4
20260507140501 55 337 3.5 7.8 0.00 0.24 0.00 76 1009.4
20260507140005 55 338 2.6 6.1 0.00 0.24 0.00 77 1009.7
20260507135502 55 321 0.9 6.1 0.00 0.24 0.00 78 1009.7
20260507135001 54 334 4.3 7.0 0.00 0.24 0.00 80 1009.7
20260507134501 54 326 5.2 9.6 0.00 0.24 0.00 80 1009.4
20260507134001 54 291 5.2 7.0 0.00 0.24 0.00 82 1009.4
20260507133501 53 310 3.5 7.0 0.00 0.24 0.00 84 1009.4
20260507133001 53 284 4.3 6.1 0.00 0.24 0.00 84 1009.4
20260507132501 53 288 4.3 6.1 0.00 0.24 0.00 84 1009.4
20260507132001 53 340 3.5 7.0 0.00 0.24 0.00 87 1009.4
20260507131502 53 44 2.6 7.0 0.00 0.24 0.00 87 1009.6
20260507131001 52 312 4.3 5.2 0.00 0.24 0.00 87 1009.6
20260507130501 52 272 4.3 7.8 0.00 0.24 0.00 88 1009.6
20260507130001 52 315 1.7 5.2 0.00 0.24 0.00 88 1009.7
20260507125504 52 315 3.5 4.3 0.00 0.24 0.00 89 1009.7
20260507125001 52 261 1.7 5.2 0.00 0.24 0.00 89 1009.7
20260507124501 52 260 2.6 5.2 0.00 0.24 0.00 89 1009.6
20260507124001 52 324 4.3 4.3 0.00 0.24 0.00 89 1009.6
20260507123501 52 317 2.6 4.3 0.00 0.24 0.00 89 1009.6
20260507123001 52 294 0.9 5.2 0.00 0.24 0.00 89 1009.5
20260507122504 52 268 3.5 5.2 0.00 0.24 0.00 89 1009.5
20260507122001 52 292 1.7 5.2 0.00 0.24 0.00 90 1009.5
20260507121504 52 312 1.7 5.2 0.00 0.24 0.00 90 1009.4
20260507121001 51 291 1.7 4.3 0.00 0.24 0.00 90 1009.4
20260507120501 52 290 2.6 4.3 0.00 0.24 0.00 90 1009.4
20260507120001 52 272 1.7 3.5 0.00 0.24 0.00 91 1009.4
20260507115501 52 271 2.6 5.2 0.00 0.24 0.00 92 1009.4
20260507115004 52 274 1.7 4.3 0.00 0.24 0.00 91 1009.4
20260507114503 52 321 1.7 3.5 0.00 0.24 0.00 91 1009.3
20260507114001 51 242 2.6 3.5 0.00 0.24 0.00 92 1009.3
20260507113504 51 321 0.9 4.3 0.00 0.24 0.00 92 1009.3
20260507113001 51 284 1.7 5.2 0.00 0.24 0.00 92 1009.1
20260507112501 51 314 1.7 3.5 0.00 0.24 0.00 92 1009.1
20260507112001 51 277 0.9 5.2 0.00 0.24 0.00 92 1009.1
20260507111502 51 269 0.0 3.5 0.00 0.24 0.00 92 1008.6
20260507111001 51 261 0.0 3.5 0.00 0.24 0.00 92 1008.6
20260507110501 51 289 0.0 4.3 0.00 0.24 0.00 92 1008.6
20260507110004 51 292 0.0 2.6 0.00 0.24 0.00 92 1008.7
20260507105501 51 274 2.6 2.6 0.00 0.24 0.00 92 1008.7
20260507105001 51 240 0.0 1.7 0.00 0.24 0.00 92 1008.7
20260507104504 51 240 0.0 1.7 0.00 0.24 0.00 92 1008.4
20260507104004 51 240 1.7 1.7 0.00 0.24 0.00 92 1008.4
20260507103501 51 277 0.0 2.6 0.00 0.24 0.00 92 1008.4
20260507103001 51 277 0.0 0.0 0.00 0.24 0.00 92 1008.1
20260507102501 51 277 0.0 1.7 0.00 0.24 0.00 92 1008.1
20260507102006 51 277 0.0 0.9 0.00 0.24 0.00 91 1008.1
20260507101501 51 277 0.0 1.7 0.00 0.24 0.00 91 1008.3
20260507101001 51 277 0.0 1.7 0.00 0.24 0.00 91 1008.3
20260507100501 51 277 0.0 1.7 0.00 0.24 0.00 91 1008.3
20260507100001 51 277 1.7 2.6 0.00 0.24 0.00 91 1008.1
20260507095501 51 263 1.7 1.7 0.00 0.24 0.00 91 1008.1
20260507095001 51 250 0.0 0.0 0.00 0.24 0.00 91 1008.1
20260507094504 51 250 0.0 0.0 0.00 0.24 0.00 91 1007.9
20260507094001 51 250 0.0 0.0 0.00 0.24 0.00 91 1007.9
20260507093501 51 250 0.0 0.0 0.00 0.24 0.00 91 1007.9
20260507093004 50 250 0.0 1.7 0.00 0.24 0.00 91 1007.8
20260507092502 51 250 0.0 1.7 0.00 0.24 0.00 91 1007.8
20260507092001 50 250 0.9 2.6 0.00 0.24 0.00 91 1007.8
20260507091501 50 295 2.6 3.5 0.00 0.24 0.00 91 1007.7
20260507091001 50 283 0.9 3.5 0.00 0.24 0.00 91 1007.7
20260507090504 50 300 3.5 5.2 0.00 0.24 0.00 91 1007.7
20260507090001 51 250 0.9 5.2 0.00 0.24 0.00 91 1007.7
20260507085501 51 277 2.6 4.3 0.00 0.24 0.00 90 1007.7
20260507085001 51 303 3.5 5.2 0.00 0.24 0.00 90 1007.7
20260507084501 51 299 3.5 5.2 0.00 0.24 0.00 90 1007.7
20260507084001 51 271 0.9 5.2 0.00 0.24 0.00 90 1007.7
20260507083504 51 305 2.6 3.5 0.00 0.24 0.00 90 1007.7
20260507083001 51 297 1.7 5.2 0.00 0.24 0.00 90 1007.8
20260507082504 51 321 4.3 6.1 0.00 0.24 0.00 90 1007.8
20260507082001 51 281 1.7 5.2 0.00 0.24 0.00 89 1007.8
20260507081501 51 319 3.5 7.0 0.00 0.24 0.00 90 1008.0
20260507081001 51 298 3.5 6.1 0.00 0.24 0.00 89 1008.0
20260507080501 51 296 5.2 8.7 0.00 0.24 0.00 90 1008.0
20260507080001 51 274 3.5 6.1 0.00 0.23 0.00 90 1008.3
20260507075501 51 323 0.9 7.8 0.00 0.23 0.00 90 1008.3
20260507075004 51 299 3.5 9.6 0.00 0.23 0.00 89 1008.3
20260507074501 52 309 4.3 9.6 0.00 0.23 0.00 89 1008.2
20260507074001 52 296 5.2 9.6 0.00 0.23 0.00 89 1008.2
20260507073500 52 307 7.0 7.8 0.00 0.23 0.00 89 1008.2
20260507073004 52 309 5.2 7.8 0.00 0.23 0.00 89 1008.2
20260507072501 52 305 4.3 7.0 0.00 0.23 0.00 89 1008.2
20260507072001 52 302 4.3 7.8 0.00 0.23 0.00 89 1008.2
20260507071501 52 276 7.8 8.7 0.00 0.23 0.00 89 1007.7
20260507071001 52 286 1.7 10.4 0.02 0.23 0.00 89 1007.7
20260507070501 53 278 7.8 9.6 0.02 0.23 0.00 88 1007.8
20260507070001 53 303 4.3 8.7 0.02 0.23 0.00 89 1008.1
20260507065501 53 303 3.5 5.2 0.03 0.23 0.00 89 1008.1
20260507065001 53 273 2.6 5.2 0.08 0.23 0.00 88 1008.1
20260507064500 53 321 1.7 5.2 0.10 0.23 0.00 88 1008.3
20260507064003 53 296 3.5 3.5 0.15 0.21 0.00 88 1008.3
20260507063501 53 229 0.0 4.3 0.15 0.21 0.00 87 1008.3
20260507063001 54 263 1.7 4.3 0.15 0.21 0.00 87 1007.8
20260507062501 54 324 0.9 6.1 0.15 0.21 0.00 87 1007.8
20260507062001 54 256 1.7 6.1 0.15 0.21 0.00 86 1007.8
20260507061502 54 305 4.3 7.8 0.15 0.21 0.00 85 1007.7
20260507061000 55 268 3.5 5.2 0.13 0.20 0.00 85 1007.7
20260507060500 55 263 3.5 7.8 0.13 0.20 0.00 84 1007.7
20260507060000 55 304 5.2 7.0 0.13 0.20 0.00 84 1008.3
20260507055500 56 321 1.7 6.1 0.12 0.18 0.00 83 1008.3
20260507055000 56 168 3.5 10.4 0.07 0.14 0.00 83 1008.3
20260507054500 56 286 7.0 10.4 0.05 0.12 0.00 82 1006.8
20260507054000 57 313 2.6 7.8 0.00 0.07 0.00 80 1006.8
20260507053500 57 318 2.6 4.3 0.00 0.07 0.00 79 1006.8
20260507053000 57 34 0.9 3.5 0.00 0.07 0.00 79 1006.9
20260507052500 57 318 3.5 6.1 0.00 0.07 0.00 78 1006.9
20260507052000 57 293 4.3 6.1 0.00 0.07 0.00 78 1006.9
20260507051500 57 336 2.6 6.1 0.00 0.07 0.00 77 1006.6
20260507051000 57 279 3.5 7.0 0.00 0.07 0.00 77 1006.6
20260507050500 57 327 6.1 6.1 0.00 0.07 0.00 77 1006.6
20260507050000 57 305 4.3 6.1 0.00 0.07 0.00 78 1006.3
20260507045500 57 317 4.3 7.0 0.00 0.07 0.00 78 1006.3
20260507045000 58 316 3.5 5.2 0.00 0.07 0.00 78 1006.3
20260507044503 58 355 1.7 4.3 0.00 0.07 0.00 78 1007.0
20260507044000 58 271 3.5 8.7 0.00 0.07 0.00 78 1007.0
20260507043500 58 323 2.6 7.8 0.00 0.07 0.00 79 1007.0
20260507043000 58 281 3.5 7.0 0.00 0.07 0.00 80 1007.1
20260507042500 58 313 1.7 6.1 0.00 0.07 0.00 81 1007.1
20260507042000 58 329 3.5 8.7 0.00 0.07 0.00 81 1007.1
20260507041500 58 320 5.2 8.7 0.00 0.07 0.00 82 1006.7
20260507041000 59 312 5.2 7.0 0.00 0.07 0.00 82 1006.7
20260507040500 59 327 4.3 5.2 0.00 0.07 0.00 82 1006.7
20260507040000 59 336 1.7 6.1 0.00 0.07 0.00 82 1006.8
20260507035503 59 350 5.2 7.0 0.00 0.07 0.00 82 1006.8
20260507035000 60 311 5.2 6.1 0.00 0.07 0.00 82 1006.8
20260507034500 60 316 1.7 7.0 0.00 0.07 0.00 82 1006.7
20260507034000 60 338 4.3 8.7 0.00 0.07 0.00 82 1006.7
20260507033500 61 305 3.5 7.8 0.00 0.07 0.00 82 1006.7
20260507033000 61 288 1.7 11.3 0.00 0.07 0.00 82 1006.5
20260507032503 62 296 5.2 11.3 0.00 0.07 0.00 82 1006.5
20260507032000 63 332 8.7 12.2 0.02 0.07 0.00 81 1006.5
20260507031503 64 309 8.7 16.5 0.02 0.07 0.00 83 1005.9
20260507031000 66 300 4.3 5.2 0.04 0.07 0.00 88 1005.9
20260507030500 66 231 0.0 2.6 0.04 0.07 0.00 88 1005.9
20260507030000 66 181 1.7 3.5 0.04 0.07 0.00 88 1006.1
20260507025500 66 230 0.0 0.9 0.04 0.07 0.00 87 1006.1
20260507025000 66 254 0.9 2.6 0.04 0.07 0.00 87 1006.1
20260507024500 66 161 0.0 2.6 0.04 0.07 0.00 87 1006.0
20260507024000 66 180 0.0 3.5 0.04 0.07 0.00 86 1006.0
20260507023500 67 163 1.7 5.2 0.04 0.07 0.00 86 1006.0